GPS BIIF-11

Last updated on Tue Sep 22 2026 00:03:02 GMT+0000 (Coordinated Universal Time)

1 41019U 15062A 26264.50218960 -.00000068 00000+0 00000+0 0 9993 2 41019 57.0209 27.1093 0116301 231.1555 127.8125 2.00567157 79764
UTC large
Height (km)
Speed (km/s)
/
Latitude / Longitude
Inclination (degrees)
Orbital Period (minutes)
Azimuth
Elevation
Range (km)
Doppler Factor

Next 0 passes for location: London (51.5072 / 0.1276)

No passes found over London.
GPS BIIF-11